Flag for China Weather past 2 weeks in Shenzhen, Guangdong, China

Now
73 °F

Passing clouds.


Feels Like: 75 °F
Forecast: 70 / 83 °F
Wind: 10 mph from East

Location: Shenzhen Airport

Current Time: Apr 26, 2015 at 3:21:20 AM

Latest Report: Apr 26, 2015 at 3:00 AM


Visibility: N/A

Pressure: 29.98 "Hg

Humidity: 74%

Dew point: 64 °F

Location of ShenzhenLocation

Historic Weather in Shenzhen — Graph

°F

Shenzhen temperature yesterday

Maximum temperature yesterday: 81 °F (at 2:00 PM)
Minimum temperature yesterday: 73 °F (at 1:00 AM)
Average temperature yesterday: 76 °F

Past Weeks' High & Low Weather Summary

 TemperatureHumidityPressure
High82 °F (Apr 13, 1:00 PM)94% (Apr 11, 3:00 AM)30.15 "Hg (Apr 11, 3:00 AM)
Low57 °F (Apr 11, 3:00 AM)17% (Apr 14, 11:00 AM)29.68 "Hg (Apr 19, 5:00 PM)
Average74 °F69%29.97 "Hg
* Reported Apr 11 2:00 AM — Apr 26 2:00 AM, Shenzhen, Weather by CustomWeather, © 2015

Note: Actual official high and low records may vary slightly from our data, if they occured in-between our weather recording intervals... More about our weather records

Advertising

Shenzhen weather history for previous 24 hours

 ConditionsComfort  
Time TempWeatherWind HumidityBarometerVisibility
2:00 AM
Sun, Apr 26
75 °FPassing clouds.8 mph69%30.01 "HgN/A
1:00 AM75 °FPassing clouds.8 mph69%30.01 "HgN/A
12:00 AM75 °FPassing clouds.6 mph69%30.01 "HgN/A
11:00 PM
Sat, Apr 25
75 °FPassing clouds.8 mph69%30.04 "HgN/A
10:00 PM77 °FPassing clouds.8 mph69%30.01 "HgN/A
9:00 PM77 °FPassing clouds.6 mph79%30.01 "HgN/A
8:00 PM77 °FPassing clouds.8 mph74%30.01 "HgN/A
7:00 PM77 °FPassing clouds.8 mph79%29.98 "Hg5 mi
6:00 PM77 °FPartly sunny.8 mph74%29.98 "Hg5 mi
5:00 PM77 °FPartly sunny.10 mph74%29.95 "Hg4 mi
4:00 PM79 °FPassing clouds.10 mph70%29.95 "Hg4 mi
3:00 PM79 °FPassing clouds.10 mph70%29.98 "Hg4 mi
2:00 PM81 °FPassing clouds.8 mph66%29.98 "Hg4 mi
1:00 PM79 °FPassing clouds.8 mph70%30.01 "Hg4 mi
12:00 PM79 °FPassing clouds.6 mph70%30.04 "Hg4 mi
11:00 AM77 °FPartly sunny.6 mph74%30.07 "Hg5 mi
10:00 AM77 °FPartly sunny.6 mph74%30.07 "Hg4 mi
9:00 AM77 °FPartly sunny.6 mph69%30.07 "Hg4 mi
7:00 AM73 °FScattered clouds.6 mph74%30.04 "Hg4 mi
6:00 AM73 °FFog.6 mph78%30.01 "Hg2 mi
5:00 AM73 °FFog.3 mph83%30.01 "Hg3 mi
4:00 AM73 °FFog.6 mph83%30.01 "Hg3 mi
3:00 AM75 °FFog.3 mph83%30.01 "Hg3 mi
Weather by CustomWeather, © 2015

See weather overviewHow to use our weather pages